Find Starlink 5998

NORAD ID: 56468 Int'l Des: 2023-064 Owner: SPXS Country: US Constellation: starlink operational
LEOCIRCULAR

当前视图

正在加载3D地球...

About Starlink 5998

Starlink 5998 (NORAD 56468) is a starlink constellation satellite (v1.5) launched May 10, 2023 by SPXS of US. It operates in LEO, CIRCULAR orbit with a mass of 305.00 kg.

即将过境

Passes for default location (London). Set your location on the main map for personalized predictions.

高度历史

Loading altitude history...

两行轨道根数

1 56468U 23064W 26264.04979312 .00000245 00000-0 28300-4 0 9997
2 56468 70.0006 11.7014 0003217 270.2067 89.8724 14.98330565184516
Epoch: Sep 21, 2026 • Age: 10 hours

当前状态

高度 576.4 km
远地点 / 近地点 N/A
速度 7.57 km/s
星下点 -12.33°S, 19.77°E
发射日期 May 10, 2023
运行时间 3.3 years
类型 internet

技术详情

分类 Payload
质量 305.00 kg
干质量 290.00 kg
长度 0.20 m
跨度 9.00 m
形状 ? Box + pan
制造商 SPXS
平台类型 Starlink
阶段状态 In Orbit
所有者/国家 SPXS/US

Most Searched